owner,sensor,date,latitude,longitude,sea_water_turbidity,qcFlag 
SCCF RECON,ioos:station:SCCF:18:1,2014-10-01T00:00:00Z,26.6955,-81.8138,2.02,1111122 
SCCF RECON,ioos:station:SCCF:18:1,2014-10-01T01:00:00Z,26.6955,-81.8138,1.94,1111122 
SCCF RECON,ioos:station:SCCF:18:1,2014-10-01T02:00:00Z,26.6955,-81.8138,1.81,1111122 
SCCF RECON,ioos:station:SCCF:18:1,2014-10-01T03:00:00Z,26.6955,-81.8138,1.85,1111122 
SCCF RECON,ioos:station:SCCF:18:1,2014-10-01T04:00:00Z,26.6955,-81.8138,1.83,1111122 
SCCF RECON,ioos:station:SCCF:18:1,2014-10-01T05:00:00Z,26.6955,-81.8138,1.46,1111122 
SCCF RECON,ioos:station:SCCF:18:1,2014-10-01T06:00:00Z,26.6955,-81.8138,1.5,1111122 
SCCF RECON,ioos:station:SCCF:18:1,2014-10-01T07:00:00Z,26.6955,-81.8138,1.37,1111122 
SCCF RECON,ioos:station:SCCF:18:1,2014-10-01T08:00:00Z,26.6955,-81.8138,1.41,1111122 
SCCF RECON,ioos:station:SCCF:18:1,2014-10-01T09:00:00Z,26.6955,-81.8138,1.5,1111122 
SCCF RECON,ioos:station:SCCF:18:1,2014-10-01T10:00:00Z,26.6955,-81.8138,1.44,1111122 
SCCF RECON,ioos:station:SCCF:18:1,2014-10-01T11:00:00Z,26.6955,-81.8138,1.39,1111122 
SCCF RECON,ioos:station:SCCF:18:1,2014-10-01T12:00:00Z,26.6955,-81.8138,1.4,1111122 
SCCF RECON,ioos:station:SCCF:18:1,2014-10-01T13:00:00Z,26.6955,-81.8138,1.31,1111122 
SCCF RECON,ioos:station:SCCF:18:1,2014-10-01T14:00:00Z,26.6955,-81.8138,1.38,1111122 
SCCF RECON,ioos:station:SCCF:18:1,2014-10-01T15:00:00Z,26.6955,-81.8138,1.3,1111122 
SCCF RECON,ioos:station:SCCF:18:1,2014-10-01T16:00:00Z,26.6955,-81.8138,1.31,1111122 
SCCF RECON,ioos:station:SCCF:18:1,2014-10-01T17:00:00Z,26.6955,-81.8138,1.42,1111122 
SCCF RECON,ioos:station:SCCF:18:1,2014-10-01T18:00:00Z,26.6955,-81.8138,1.52,1111122 
SCCF RECON,ioos:station:SCCF:18:1,2014-10-01T19:00:00Z,26.6955,-81.8138,1.59,1111122 
SCCF RECON,ioos:station:SCCF:18:1,2014-10-01T20:00:00Z,26.6955,-81.8138,1.71,1111122 
SCCF RECON,ioos:station:SCCF:18:1,2014-10-01T21:00:00Z,26.6955,-81.8138,1.54,1111122 
SCCF RECON,ioos:station:SCCF:18:1,2014-10-01T22:00:00Z,26.6955,-81.8138,1.57,1111122 
SCCF RECON,ioos:station:SCCF:18:1,2014-10-01T23:00:00Z,26.6955,-81.8138,1.64,1111122 
SCCF RECON,ioos:station:SCCF:18:1,2014-10-02T00:00:00Z,26.6955,-81.8138,1.54,1111122 
SCCF RECON,ioos:station:SCCF:18:1,2014-10-02T01:00:00Z,26.6955,-81.8138,1.52,1111122 
SCCF RECON,ioos:station:SCCF:18:1,2014-10-02T02:00:00Z,26.6955,-81.8138,1.47,1111122 
SCCF RECON,ioos:station:SCCF:18:1,2014-10-02T03:00:00Z,26.6955,-81.8138,1.47,1111122 
SCCF RECON,ioos:station:SCCF:18:1,2014-10-02T04:00:00Z,26.6955,-81.8138,1.44,1111122 
SCCF RECON,ioos:station:SCCF:18:1,2014-10-02T05:00:00Z,26.6955,-81.8138,1.34,1111122 
SCCF RECON,ioos:station:SCCF:18:1,2014-10-02T06:00:00Z,26.6955,-81.8138,1.36,1111122 
SCCF RECON,ioos:station:SCCF:18:1,2014-10-02T07:00:00Z,26.6955,-81.8138,1.37,1111122 
SCCF RECON,ioos:station:SCCF:18:1,2014-10-02T08:00:00Z,26.6955,-81.8138,1.39,1111122 
SCCF RECON,ioos:station:SCCF:18:1,2014-10-02T09:00:00Z,26.6955,-81.8138,1.44,1111122 
SCCF RECON,ioos:station:SCCF:18:1,2014-10-02T10:00:00Z,26.6955,-81.8138,1.5,1111122 
SCCF RECON,ioos:station:SCCF:18:1,2014-10-02T11:00:00Z,26.6955,-81.8138,1.45,1111122 
SCCF RECON,ioos:station:SCCF:18:1,2014-10-02T12:00:00Z,26.6955,-81.8138,1.38,1111122 
SCCF RECON,ioos:station:SCCF:18:1,2014-10-02T13:00:00Z,26.6955,-81.8138,1.81,1111122 
SCCF RECON,ioos:station:SCCF:18:1,2014-10-02T14:00:00Z,26.6955,-81.8138,1.44,1111122 
SCCF RECON,ioos:station:SCCF:18:1,2014-10-02T15:00:00Z,26.6955,-81.8138,1.43,1111122 
SCCF RECON,ioos:station:SCCF:18:1,2014-10-02T16:00:00Z,26.6955,-81.8138,1.38,1111122 
SCCF RECON,ioos:station:SCCF:18:1,2014-10-02T17:00:00Z,26.6955,-81.8138,1.42,1111122 
SCCF RECON,ioos:station:SCCF:18:1,2014-10-02T18:00:00Z,26.6955,-81.8138,1.59,1111122 
SCCF RECON,ioos:station:SCCF:18:1,2014-10-02T19:00:00Z,26.6955,-81.8138,1.62,1111122 
SCCF RECON,ioos:station:SCCF:18:1,2014-10-02T20:00:00Z,26.6955,-81.8138,2.3,1111122 
SCCF RECON,ioos:station:SCCF:18:1,2014-10-02T21:00:00Z,26.6955,-81.8138,2.3,1111122 
SCCF RECON,ioos:station:SCCF:18:1,2014-10-02T22:00:00Z,26.6955,-81.8138,2.06,1111122 
SCCF RECON,ioos:station:SCCF:18:1,2014-10-02T23:00:00Z,26.6955,-81.8138,2.01,1111122 
SCCF RECON,ioos:station:SCCF:18:1,2014-10-03T00:00:00Z,26.6955,-81.8138,1.63,1111122 
SCCF RECON,ioos:station:SCCF:18:1,2014-10-03T01:00:00Z,26.6955,-81.8138,1.51,1111122 
SCCF RECON,ioos:station:SCCF:18:1,2014-10-03T02:00:00Z,26.6955,-81.8138,1.59,1111122 
SCCF RECON,ioos:station:SCCF:18:1,2014-10-03T03:00:00Z,26.6955,-81.8138,1.58,1111122 
SCCF RECON,ioos:station:SCCF:18:1,2014-10-03T04:00:00Z,26.6955,-81.8138,1.57,1111122 
SCCF RECON,ioos:station:SCCF:18:1,2014-10-03T05:00:00Z,26.6955,-81.8138,1.52,1111122 
SCCF RECON,ioos:station:SCCF:18:1,2014-10-03T06:00:00Z,26.6955,-81.8138,1.43,1111122 
SCCF RECON,ioos:station:SCCF:18:1,2014-10-03T07:00:00Z,26.6955,-81.8138,1.44,1111122 
SCCF RECON,ioos:station:SCCF:18:1,2014-10-03T08:00:00Z,26.6955,-81.8138,1.38,1111122 
SCCF RECON,ioos:station:SCCF:18:1,2014-10-03T09:00:00Z,26.6955,-81.8138,1.39,1111122 
SCCF RECON,ioos:station:SCCF:18:1,2014-10-03T10:00:00Z,26.6955,-81.8138,1.36,1111122 
SCCF RECON,ioos:station:SCCF:18:1,2014-10-03T11:00:00Z,26.6955,-81.8138,1.33,1111122 
SCCF RECON,ioos:station:SCCF:18:1,2014-10-03T12:00:00Z,26.6955,-81.8138,1.38,1111122 
SCCF RECON,ioos:station:SCCF:18:1,2014-10-03T13:00:00Z,26.6955,-81.8138,1.4,1111122 
SCCF RECON,ioos:station:SCCF:18:1,2014-10-03T14:00:00Z,26.6955,-81.8138,1.39,1111122 
SCCF RECON,ioos:station:SCCF:18:1,2014-10-03T15:00:00Z,26.6955,-81.8138,1.3,1111122 
SCCF RECON,ioos:station:SCCF:18:1,2014-10-03T16:00:00Z,26.6955,-81.8138,1.33,1111122 
SCCF RECON,ioos:station:SCCF:18:1,2014-10-03T17:00:00Z,26.6955,-81.8138,1.18,1111122 
SCCF RECON,ioos:station:SCCF:18:1,2014-10-03T18:00:00Z,26.6955,-81.8138,1.6,1111122 
SCCF RECON,ioos:station:SCCF:18:1,2014-10-03T19:00:00Z,26.6955,-81.8138,1.3,1111122 
SCCF RECON,ioos:station:SCCF:18:1,2014-10-03T20:00:00Z,26.6955,-81.8138,1.67,1111122 
SCCF RECON,ioos:station:SCCF:18:1,2014-10-03T21:00:00Z,26.6955,-81.8138,1.9,1111122 
SCCF RECON,ioos:station:SCCF:18:1,2014-10-03T22:00:00Z,26.6955,-81.8138,1.93,1111122 
SCCF RECON,ioos:station:SCCF:18:1,2014-10-03T23:00:00Z,26.6955,-81.8138,1.68,1111122 
SCCF RECON,ioos:station:SCCF:18:1,2014-10-04T00:00:00Z,26.6955,-81.8138,1.71,1111122 
SCCF RECON,ioos:station:SCCF:18:1,2014-10-04T01:00:00Z,26.6955,-81.8138,1.4,1111122 
SCCF RECON,ioos:station:SCCF:18:1,2014-10-04T02:00:00Z,26.6955,-81.8138,1.52,1111122 
SCCF RECON,ioos:station:SCCF:18:1,2014-10-04T03:00:00Z,26.6955,-81.8138,1.48,1111122 
SCCF RECON,ioos:station:SCCF:18:1,2014-10-04T04:00:00Z,26.6955,-81.8138,1.47,1111122 
SCCF RECON,ioos:station:SCCF:18:1,2014-10-04T05:00:00Z,26.6955,-81.8138,1.41,1111122 
SCCF RECON,ioos:station:SCCF:18:1,2014-10-04T06:00:00Z,26.6955,-81.8138,1.31,1111122 
SCCF RECON,ioos:station:SCCF:18:1,2014-10-04T07:00:00Z,26.6955,-81.8138,1.3,1111122 
SCCF RECON,ioos:station:SCCF:18:1,2014-10-04T08:00:00Z,26.6955,-81.8138,1.32,1111122 
SCCF RECON,ioos:station:SCCF:18:1,2014-10-04T09:00:00Z,26.6955,-81.8138,1.15,1111122 
SCCF RECON,ioos:station:SCCF:18:1,2014-10-04T10:00:00Z,26.6955,-81.8138,1.22,1111122 
SCCF RECON,ioos:station:SCCF:18:1,2014-10-04T11:00:00Z,26.6955,-81.8138,1.3,1111122 
SCCF RECON,ioos:station:SCCF:18:1,2014-10-04T12:00:00Z,26.6955,-81.8138,1.25,1111122 
SCCF RECON,ioos:station:SCCF:18:1,2014-10-04T13:00:00Z,26.6955,-81.8138,1.3,1111122 
SCCF RECON,ioos:station:SCCF:18:1,2014-10-04T14:00:00Z,26.6955,-81.8138,1.29,1111122 
SCCF RECON,ioos:station:SCCF:18:1,2014-10-04T15:00:00Z,26.6955,-81.8138,1.21,1111122 
SCCF RECON,ioos:station:SCCF:18:1,2014-10-04T16:00:00Z,26.6955,-81.8138,1.37,1111122 
SCCF RECON,ioos:station:SCCF:18:1,2014-10-04T17:00:00Z,26.6955,-81.8138,1.26,1111122 
SCCF RECON,ioos:station:SCCF:18:1,2014-10-04T18:00:00Z,26.6955,-81.8138,1.35,1111122 
SCCF RECON,ioos:station:SCCF:18:1,2014-10-04T19:00:00Z,26.6955,-81.8138,1.39,1111122 
SCCF RECON,ioos:station:SCCF:18:1,2014-10-04T20:00:00Z,26.6955,-81.8138,1.36,1111122 
SCCF RECON,ioos:station:SCCF:18:1,2014-10-04T21:00:00Z,26.6955,-81.8138,1.56,1111122 
SCCF RECON,ioos:station:SCCF:18:1,2014-10-04T22:00:00Z,26.6955,-81.8138,1.47,1111122 
SCCF RECON,ioos:station:SCCF:18:1,2014-10-04T23:00:00Z,26.6955,-81.8138,1.68,1111122 
SCCF RECON,ioos:station:SCCF:18:1,2014-10-05T00:00:00Z,26.6955,-81.8138,1.42,1111122 
SCCF RECON,ioos:station:SCCF:18:1,2014-10-05T01:00:00Z,26.6955,-81.8138,1.44,1111122 
SCCF RECON,ioos:station:SCCF:18:1,2014-10-05T02:00:00Z,26.6955,-81.8138,1.48,1111122 
SCCF RECON,ioos:station:SCCF:18:1,2014-10-05T03:00:00Z,26.6955,-81.8138,1.46,1111122 
SCCF RECON,ioos:station:SCCF:18:1,2014-10-05T04:00:00Z,26.6955,-81.8138,1.4,1111122 
SCCF RECON,ioos:station:SCCF:18:1,2014-10-05T05:00:00Z,26.6955,-81.8138,1.39,1111122 
SCCF RECON,ioos:station:SCCF:18:1,2014-10-05T06:00:00Z,26.6955,-81.8138,1.31,1111122 
SCCF RECON,ioos:station:SCCF:18:1,2014-10-05T07:00:00Z,26.6955,-81.8138,1.32,1111122 
SCCF RECON,ioos:station:SCCF:18:1,2014-10-05T08:00:00Z,26.6955,-81.8138,1.26,1111122 
SCCF RECON,ioos:station:SCCF:18:1,2014-10-05T09:00:00Z,26.6955,-81.8138,1.28,1111122 
SCCF RECON,ioos:station:SCCF:18:1,2014-10-05T10:00:00Z,26.6955,-81.8138,1.56,1111122 
SCCF RECON,ioos:station:SCCF:18:1,2014-10-05T11:00:00Z,26.6955,-81.8138,1.34,1111122 
SCCF RECON,ioos:station:SCCF:18:1,2014-10-05T12:00:00Z,26.6955,-81.8138,2.2,1111122 
SCCF RECON,ioos:station:SCCF:18:1,2014-10-05T13:00:00Z,26.6955,-81.8138,2.07,1111122 
SCCF RECON,ioos:station:SCCF:18:1,2014-10-05T14:00:00Z,26.6955,-81.8138,1.67,1111122 
SCCF RECON,ioos:station:SCCF:18:1,2014-10-05T15:00:00Z,26.6955,-81.8138,1.45,1111122 
SCCF RECON,ioos:station:SCCF:18:1,2014-10-05T16:00:00Z,26.6955,-81.8138,1.61,1111122 
SCCF RECON,ioos:station:SCCF:18:1,2014-10-05T17:00:00Z,26.6955,-81.8138,1.35,1111122 
SCCF RECON,ioos:station:SCCF:18:1,2014-10-05T18:00:00Z,26.6955,-81.8138,1.16,1111122 
SCCF RECON,ioos:station:SCCF:18:1,2014-10-05T19:00:00Z,26.6955,-81.8138,1.2,1111122 
SCCF RECON,ioos:station:SCCF:18:1,2014-10-05T20:00:00Z,26.6955,-81.8138,1.18,1111122 
SCCF RECON,ioos:station:SCCF:18:1,2014-10-05T21:00:00Z,26.6955,-81.8138,1.52,1111122 
SCCF RECON,ioos:station:SCCF:18:1,2014-10-05T22:00:00Z,26.6955,-81.8138,1.66,1111122 
SCCF RECON,ioos:station:SCCF:18:1,2014-10-05T23:00:00Z,26.6955,-81.8138,1.62,1111122 
SCCF RECON,ioos:station:SCCF:18:1,2014-10-06T00:00:00Z,26.6955,-81.8138,1.61,1111122 
SCCF RECON,ioos:station:SCCF:18:1,2014-10-06T01:00:00Z,26.6955,-81.8138,1.53,1111122 
SCCF RECON,ioos:station:SCCF:18:1,2014-10-06T02:00:00Z,26.6955,-81.8138,1.54,1111122 
SCCF RECON,ioos:station:SCCF:18:1,2014-10-06T03:00:00Z,26.6955,-81.8138,1.52,1111122 
SCCF RECON,ioos:station:SCCF:18:1,2014-10-06T04:00:00Z,26.6955,-81.8138,1.31,1111122 
SCCF RECON,ioos:station:SCCF:18:1,2014-10-06T05:00:00Z,26.6955,-81.8138,1.4,1111122 
SCCF RECON,ioos:station:SCCF:18:1,2014-10-06T06:00:00Z,26.6955,-81.8138,1.15,1111122 
SCCF RECON,ioos:station:SCCF:18:1,2014-10-06T07:00:00Z,26.6955,-81.8138,1.1,1111122 
SCCF RECON,ioos:station:SCCF:18:1,2014-10-06T08:00:00Z,26.6955,-81.8138,1.24,1111122 
SCCF RECON,ioos:station:SCCF:18:1,2014-10-06T09:00:00Z,26.6955,-81.8138,1.24,1111122 
SCCF RECON,ioos:station:SCCF:18:1,2014-10-06T10:00:00Z,26.6955,-81.8138,1.39,1111122 
SCCF RECON,ioos:station:SCCF:18:1,2014-10-06T11:00:00Z,26.6955,-81.8138,1.49,1111122 
SCCF RECON,ioos:station:SCCF:18:1,2014-10-06T12:00:00Z,26.6955,-81.8138,1.44,1111122 
SCCF RECON,ioos:station:SCCF:18:1,2014-10-06T13:00:00Z,26.6955,-81.8138,3.09,1111122 
SCCF RECON,ioos:station:SCCF:18:1,2014-10-06T14:00:00Z,26.6955,-81.8138,1.76,1111122 
SCCF RECON,ioos:station:SCCF:18:1,2014-10-06T15:00:00Z,26.6955,-81.8138,1.59,1111122 
SCCF RECON,ioos:station:SCCF:18:1,2014-10-06T16:00:00Z,26.6955,-81.8138,1.68,1111122 
SCCF RECON,ioos:station:SCCF:18:1,2014-10-06T17:00:00Z,26.6955,-81.8138,1.39,1111122 
SCCF RECON,ioos:station:SCCF:18:1,2014-10-06T18:00:00Z,26.6955,-81.8138,1.32,1111122 
SCCF RECON,ioos:station:SCCF:18:1,2014-10-06T19:00:00Z,26.6955,-81.8138,1.28,1111122 
SCCF RECON,ioos:station:SCCF:18:1,2014-10-06T20:00:00Z,26.6955,-81.8138,1.42,1111122 
SCCF RECON,ioos:station:SCCF:18:1,2014-10-06T21:00:00Z,26.6955,-81.8138,1.31,1111122 
SCCF RECON,ioos:station:SCCF:18:1,2014-10-06T22:00:00Z,26.6955,-81.8138,1.42,1111122 
SCCF RECON,ioos:station:SCCF:18:1,2014-10-06T23:00:00Z,26.6955,-81.8138,1.54,1111122 
SCCF RECON,ioos:station:SCCF:18:1,2014-10-07T00:00:00Z,26.6955,-81.8138,1.41,1111122 
SCCF RECON,ioos:station:SCCF:18:1,2014-10-07T01:00:00Z,26.6955,-81.8138,1.33,1111122 
SCCF RECON,ioos:station:SCCF:18:1,2014-10-07T02:00:00Z,26.6955,-81.8138,1.3,1111122 
SCCF RECON,ioos:station:SCCF:18:1,2014-10-07T03:00:00Z,26.6955,-81.8138,1.29,1111122 
SCCF RECON,ioos:station:SCCF:18:1,2014-10-07T04:00:00Z,26.6955,-81.8138,1.31,1111122 
SCCF RECON,ioos:station:SCCF:18:1,2014-10-07T05:00:00Z,26.6955,-81.8138,1.32,1111122 
SCCF RECON,ioos:station:SCCF:18:1,2014-10-07T06:00:00Z,26.6955,-81.8138,1.18,1111122 
SCCF RECON,ioos:station:SCCF:18:1,2014-10-07T07:00:00Z,26.6955,-81.8138,1.1,1111122 
SCCF RECON,ioos:station:SCCF:18:1,2014-10-07T08:00:00Z,26.6955,-81.8138,1.21,1111122 
SCCF RECON,ioos:station:SCCF:18:1,2014-10-07T09:00:00Z,26.6955,-81.8138,1.16,1111122 
SCCF RECON,ioos:station:SCCF:18:1,2014-10-07T10:00:00Z,26.6955,-81.8138,1.41,1111122 
SCCF RECON,ioos:station:SCCF:18:1,2014-10-07T11:00:00Z,26.6955,-81.8138,1.36,1111122 
SCCF RECON,ioos:station:SCCF:18:1,2014-10-07T12:00:00Z,26.6955,-81.8138,1.5,1111122 
SCCF RECON,ioos:station:SCCF:18:1,2014-10-07T13:00:00Z,26.6955,-81.8138,1.34,1111122 
SCCF RECON,ioos:station:SCCF:18:1,2014-10-07T14:00:00Z,26.6955,-81.8138,1.35,1111122 
SCCF RECON,ioos:station:SCCF:18:1,2014-10-07T15:00:00Z,26.6955,-81.8138,1.36,1111122 
SCCF RECON,ioos:station:SCCF:18:1,2014-10-07T16:00:00Z,26.6955,-81.8138,1.37,1111122 
SCCF RECON,ioos:station:SCCF:18:1,2014-10-07T17:00:00Z,26.6955,-81.8138,1.26,1111122 
SCCF RECON,ioos:station:SCCF:18:1,2014-10-07T18:00:00Z,26.6955,-81.8138,1.28,1111122 
SCCF RECON,ioos:station:SCCF:18:1,2014-10-07T19:00:00Z,26.6955,-81.8138,1.19,1111122 
SCCF RECON,ioos:station:SCCF:18:1,2014-10-07T20:00:00Z,26.6955,-81.8138,1.35,1111122 
SCCF RECON,ioos:station:SCCF:18:1,2014-10-07T21:00:00Z,26.6955,-81.8138,1.26,1111122 
SCCF RECON,ioos:station:SCCF:18:1,2014-10-07T22:00:00Z,26.6955,-81.8138,1.62,1111122 
SCCF RECON,ioos:station:SCCF:18:1,2014-10-07T23:00:00Z,26.6955,-81.8138,1.32,1111122 
SCCF RECON,ioos:station:SCCF:18:1,2014-10-08T00:00:00Z,26.6955,-81.8138,1.35,1111122 
SCCF RECON,ioos:station:SCCF:18:1,2014-10-08T01:00:00Z,26.6955,-81.8138,1.29,1111122 
SCCF RECON,ioos:station:SCCF:18:1,2014-10-08T02:00:00Z,26.6955,-81.8138,1.2,1111122 
SCCF RECON,ioos:station:SCCF:18:1,2014-10-08T03:00:00Z,26.6955,-81.8138,1.19,1111122 
SCCF RECON,ioos:station:SCCF:18:1,2014-10-08T04:00:00Z,26.6955,-81.8138,1.2,1111122 
SCCF RECON,ioos:station:SCCF:18:1,2014-10-08T05:00:00Z,26.6955,-81.8138,1.06,1111122 
SCCF RECON,ioos:station:SCCF:18:1,2014-10-08T06:00:00Z,26.6955,-81.8138,1.2,1111122 
SCCF RECON,ioos:station:SCCF:18:1,2014-10-08T07:00:00Z,26.6955,-81.8138,1.05,1111122 
SCCF RECON,ioos:station:SCCF:18:1,2014-10-08T08:00:00Z,26.6955,-81.8138,1.06,1111122 
SCCF RECON,ioos:station:SCCF:18:1,2014-10-08T09:00:00Z,26.6955,-81.8138,1.06,1111122 
SCCF RECON,ioos:station:SCCF:18:1,2014-10-08T10:00:00Z,26.6955,-81.8138,1.46,1111122 
SCCF RECON,ioos:station:SCCF:18:1,2014-10-08T11:00:00Z,26.6955,-81.8138,1.17,1111122 
SCCF RECON,ioos:station:SCCF:18:1,2014-10-08T12:00:00Z,26.6955,-81.8138,1.43,1111122 
SCCF RECON,ioos:station:SCCF:18:1,2014-10-08T13:00:00Z,26.6955,-81.8138,1.33,1111122 
SCCF RECON,ioos:station:SCCF:18:1,2014-10-08T14:00:00Z,26.6955,-81.8138,1.14,1111122 
SCCF RECON,ioos:station:SCCF:18:1,2014-10-08T15:00:00Z,26.6955,-81.8138,1.17,1111122 
SCCF RECON,ioos:station:SCCF:18:1,2014-10-08T16:00:00Z,26.6955,-81.8138,1.22,1111122 
SCCF RECON,ioos:station:SCCF:18:1,2014-10-08T17:00:00Z,26.6955,-81.8138,1.21,1111122 
SCCF RECON,ioos:station:SCCF:18:1,2014-10-08T18:00:00Z,26.6955,-81.8138,1.11,1111122 
SCCF RECON,ioos:station:SCCF:18:1,2014-10-08T19:00:00Z,26.6955,-81.8138,1.22,1111122 
SCCF RECON,ioos:station:SCCF:18:1,2014-10-08T20:00:00Z,26.6955,-81.8138,1.07,1111122 
SCCF RECON,ioos:station:SCCF:18:1,2014-10-08T21:00:00Z,26.6955,-81.8138,1.11,1111122 
SCCF RECON,ioos:station:SCCF:18:1,2014-10-08T22:00:00Z,26.6955,-81.8138,1.07,1111122 
SCCF RECON,ioos:station:SCCF:18:1,2014-10-08T23:00:00Z,26.6955,-81.8138,1.3,1111122 
SCCF RECON,ioos:station:SCCF:18:1,2014-10-09T00:00:00Z,26.6955,-81.8138,1.31,1111122 
SCCF RECON,ioos:station:SCCF:18:1,2014-10-09T01:00:00Z,26.6955,-81.8138,1.27,1111122 
SCCF RECON,ioos:station:SCCF:18:1,2014-10-09T02:00:00Z,26.6955,-81.8138,1.21,1111122 
SCCF RECON,ioos:station:SCCF:18:1,2014-10-09T03:00:00Z,26.6955,-81.8138,1.19,1111122 
SCCF RECON,ioos:station:SCCF:18:1,2014-10-09T04:00:00Z,26.6955,-81.8138,1.12,1111122 
SCCF RECON,ioos:station:SCCF:18:1,2014-10-09T05:00:00Z,26.6955,-81.8138,1.19,1111122 
SCCF RECON,ioos:station:SCCF:18:1,2014-10-09T06:00:00Z,26.6955,-81.8138,1.26,1111122 
SCCF RECON,ioos:station:SCCF:18:1,2014-10-09T07:00:00Z,26.6955,-81.8138,1.04,1111122 
SCCF RECON,ioos:station:SCCF:18:1,2014-10-09T08:00:00Z,26.6955,-81.8138,1.1,1111122 
SCCF RECON,ioos:station:SCCF:18:1,2014-10-09T09:00:00Z,26.6955,-81.8138,0.99,1111122 
SCCF RECON,ioos:station:SCCF:18:1,2014-10-09T10:00:00Z,26.6955,-81.8138,1.05,1111122 
SCCF RECON,ioos:station:SCCF:18:1,2014-10-09T11:00:00Z,26.6955,-81.8138,1.18,1111122 
SCCF RECON,ioos:station:SCCF:18:1,2014-10-09T12:00:00Z,26.6955,-81.8138,1.36,1111122 
SCCF RECON,ioos:station:SCCF:18:1,2014-10-09T13:00:00Z,26.6955,-81.8138,1.59,1111122 
SCCF RECON,ioos:station:SCCF:18:1,2014-10-09T14:00:00Z,26.6955,-81.8138,1.38,1111122 
SCCF RECON,ioos:station:SCCF:18:1,2014-10-09T15:00:00Z,26.6955,-81.8138,1.67,1111122 
SCCF RECON,ioos:station:SCCF:18:1,2014-10-09T16:00:00Z,26.6955,-81.8138,1.56,1111122 
SCCF RECON,ioos:station:SCCF:18:1,2014-10-09T17:00:00Z,26.6955,-81.8138,1.61,1111122 
SCCF RECON,ioos:station:SCCF:18:1,2014-10-09T18:00:00Z,26.6955,-81.8138,1.46,1111122 
SCCF RECON,ioos:station:SCCF:18:1,2014-10-09T19:00:00Z,26.6955,-81.8138,1.52,1111122 
SCCF RECON,ioos:station:SCCF:18:1,2014-10-09T20:00:00Z,26.6955,-81.8138,1.4,1111122 
SCCF RECON,ioos:station:SCCF:18:1,2014-10-09T21:00:00Z,26.6955,-81.8138,1.3,1111122 
SCCF RECON,ioos:station:SCCF:18:1,2014-10-09T22:00:00Z,26.6955,-81.8138,1.6,1111122 
SCCF RECON,ioos:station:SCCF:18:1,2014-10-09T23:00:00Z,26.6955,-81.8138,1.89,1111122 
SCCF RECON,ioos:station:SCCF:18:1,2014-10-10T00:00:00Z,26.6955,-81.8138,1.32,1111122 
SCCF RECON,ioos:station:SCCF:18:1,2014-10-10T01:00:00Z,26.6955,-81.8138,1.37,1111122 
SCCF RECON,ioos:station:SCCF:18:1,2014-10-10T02:00:00Z,26.6955,-81.8138,1.32,1111122 
SCCF RECON,ioos:station:SCCF:18:1,2014-10-10T03:00:00Z,26.6955,-81.8138,1.28,1111122 
SCCF RECON,ioos:station:SCCF:18:1,2014-10-10T04:00:00Z,26.6955,-81.8138,1.28,1111122 
SCCF RECON,ioos:station:SCCF:18:1,2014-10-10T05:00:00Z,26.6955,-81.8138,1.34,1111122 
SCCF RECON,ioos:station:SCCF:18:1,2014-10-10T06:00:00Z,26.6955,-81.8138,1.21,1111122 
SCCF RECON,ioos:station:SCCF:18:1,2014-10-10T07:00:00Z,26.6955,-81.8138,1.36,1111122 
SCCF RECON,ioos:station:SCCF:18:1,2014-10-10T08:00:00Z,26.6955,-81.8138,1.19,1111122 
SCCF RECON,ioos:station:SCCF:18:1,2014-10-10T09:00:00Z,26.6955,-81.8138,1.14,1111122 
SCCF RECON,ioos:station:SCCF:18:1,2014-10-10T10:00:00Z,26.6955,-81.8138,1.13,1111122 
SCCF RECON,ioos:station:SCCF:18:1,2014-10-10T11:00:00Z,26.6955,-81.8138,1.21,1111122 
SCCF RECON,ioos:station:SCCF:18:1,2014-10-10T12:00:00Z,26.6955,-81.8138,1.18,1111122 
SCCF RECON,ioos:station:SCCF:18:1,2014-10-10T13:00:00Z,26.6955,-81.8138,1.31,1111122 
SCCF RECON,ioos:station:SCCF:18:1,2014-10-10T14:00:00Z,26.6955,-81.8138,1.27,1111122 
SCCF RECON,ioos:station:SCCF:18:1,2014-10-10T15:00:00Z,26.6955,-81.8138,1.27,1111122 
SCCF RECON,ioos:station:SCCF:18:1,2014-10-10T16:00:00Z,26.6955,-81.8138,1.25,1111122 
SCCF RECON,ioos:station:SCCF:18:1,2014-10-10T17:00:00Z,26.6955,-81.8138,1.24,1111122 
SCCF RECON,ioos:station:SCCF:18:1,2014-10-10T18:00:00Z,26.6955,-81.8138,1.25,1111122 
SCCF RECON,ioos:station:SCCF:18:1,2014-10-10T19:00:00Z,26.6955,-81.8138,1.29,1111122 
SCCF RECON,ioos:station:SCCF:18:1,2014-10-10T20:00:00Z,26.6955,-81.8138,1.73,1111122 
SCCF RECON,ioos:station:SCCF:18:1,2014-10-10T21:00:00Z,26.6955,-81.8138,1.51,1111122 
SCCF RECON,ioos:station:SCCF:18:1,2014-10-10T22:00:00Z,26.6955,-81.8138,1.62,1111122 
SCCF RECON,ioos:station:SCCF:18:1,2014-10-10T23:00:00Z,26.6955,-81.8138,1.58,1111122 
SCCF RECON,ioos:station:SCCF:18:1,2014-10-11T00:00:00Z,26.6955,-81.8138,1.48,1111122 
SCCF RECON,ioos:station:SCCF:18:1,2014-10-11T01:00:00Z,26.6955,-81.8138,1.5,1111122 
SCCF RECON,ioos:station:SCCF:18:1,2014-10-11T02:00:00Z,26.6955,-81.8138,1.32,1111122 
SCCF RECON,ioos:station:SCCF:18:1,2014-10-11T03:00:00Z,26.6955,-81.8138,1.28,1111122 
SCCF RECON,ioos:station:SCCF:18:1,2014-10-11T04:00:00Z,26.6955,-81.8138,1.27,1111122 
SCCF RECON,ioos:station:SCCF:18:1,2014-10-11T05:00:00Z,26.6955,-81.8138,1.24,1111122 
SCCF RECON,ioos:station:SCCF:18:1,2014-10-11T06:00:00Z,26.6955,-81.8138,1.32,1111122 
SCCF RECON,ioos:station:SCCF:18:1,2014-10-11T07:00:00Z,26.6955,-81.8138,1.31,1111122 
SCCF RECON,ioos:station:SCCF:18:1,2014-10-11T08:00:00Z,26.6955,-81.8138,1.36,1111122 
SCCF RECON,ioos:station:SCCF:18:1,2014-10-11T09:00:00Z,26.6955,-81.8138,1.38,1111122 
SCCF RECON,ioos:station:SCCF:18:1,2014-10-11T10:00:00Z,26.6955,-81.8138,1.3,1111122 
SCCF RECON,ioos:station:SCCF:18:1,2014-10-11T11:00:00Z,26.6955,-81.8138,1.24,1111122 
SCCF RECON,ioos:station:SCCF:18:1,2014-10-11T12:00:00Z,26.6955,-81.8138,1.52,1111122 
SCCF RECON,ioos:station:SCCF:18:1,2014-10-11T13:00:00Z,26.6955,-81.8138,1.37,1111122 
SCCF RECON,ioos:station:SCCF:18:1,2014-10-11T14:00:00Z,26.6955,-81.8138,1.32,1111122 
SCCF RECON,ioos:station:SCCF:18:1,2014-10-11T15:00:00Z,26.6955,-81.8138,1.23,1111122 
SCCF RECON,ioos:station:SCCF:18:1,2014-10-11T16:00:00Z,26.6955,-81.8138,1.24,1111122 
SCCF RECON,ioos:station:SCCF:18:1,2014-10-11T17:00:00Z,26.6955,-81.8138,1.35,1111122 
SCCF RECON,ioos:station:SCCF:18:1,2014-10-11T18:00:00Z,26.6955,-81.8138,1.51,1111122 
SCCF RECON,ioos:station:SCCF:18:1,2014-10-11T19:00:00Z,26.6955,-81.8138,1.45,1111122 
SCCF RECON,ioos:station:SCCF:18:1,2014-10-11T20:00:00Z,26.6955,-81.8138,1.57,1111122 
SCCF RECON,ioos:station:SCCF:18:1,2014-10-11T21:00:00Z,26.6955,-81.8138,1.62,1111122 
SCCF RECON,ioos:station:SCCF:18:1,2014-10-11T22:00:00Z,26.6955,-81.8138,1.43,1111122 
SCCF RECON,ioos:station:SCCF:18:1,2014-10-11T23:00:00Z,26.6955,-81.8138,1.38,1111122 
SCCF RECON,ioos:station:SCCF:18:1,2014-10-12T00:00:00Z,26.6955,-81.8138,1.4,1111122 
SCCF RECON,ioos:station:SCCF:18:1,2014-10-12T01:00:00Z,26.6955,-81.8138,1.35,1111122 
SCCF RECON,ioos:station:SCCF:18:1,2014-10-12T02:00:00Z,26.6955,-81.8138,1.44,1111122 
SCCF RECON,ioos:station:SCCF:18:1,2014-10-12T03:00:00Z,26.6955,-81.8138,1.25,1111122 
SCCF RECON,ioos:station:SCCF:18:1,2014-10-12T04:00:00Z,26.6955,-81.8138,1.21,1111122 
SCCF RECON,ioos:station:SCCF:18:1,2014-10-12T05:00:00Z,26.6955,-81.8138,1.19,1111122 
SCCF RECON,ioos:station:SCCF:18:1,2014-10-12T06:00:00Z,26.6955,-81.8138,1.17,1111122 
SCCF RECON,ioos:station:SCCF:18:1,2014-10-12T07:00:00Z,26.6955,-81.8138,1.17,1111122 
SCCF RECON,ioos:station:SCCF:18:1,2014-10-12T08:00:00Z,26.6955,-81.8138,1.16,1111122 
SCCF RECON,ioos:station:SCCF:18:1,2014-10-12T09:00:00Z,26.6955,-81.8138,1.11,1111122 
SCCF RECON,ioos:station:SCCF:18:1,2014-10-12T10:00:00Z,26.6955,-81.8138,1.06,1111122 
SCCF RECON,ioos:station:SCCF:18:1,2014-10-12T11:00:00Z,26.6955,-81.8138,1.06,1111122 
SCCF RECON,ioos:station:SCCF:18:1,2014-10-12T12:00:00Z,26.6955,-81.8138,1.79,1111122 
SCCF RECON,ioos:station:SCCF:18:1,2014-10-12T13:00:00Z,26.6955,-81.8138,1.24,1111122 